Location: Newark
(45.2500°N, 7.5833°E)
Time: 11:20:21
(UTC+00:00)

SR - Pass Details

Date: 29 January 2020
Orbit: 575 x 880 km, 66.7° (Epoch: 25 February)

Event Time Altitude Azimuth Distance (km) Brightness Sun altitude
Exits shadow 02:53:18 11° 29° (NNE) 2,336 ? -42.2°
Drops below altitude 10° 02:54:22 10° 41° (NE) 2,406 ? -42.0°
Sets 02:58:41 0° 74° (ENE) 3,255 ? -41.3°
